ECMWFNIL_925_temp_057.txt.gz
Temp
9 10 10 10 9 9 9 9 9 9 9 9 9 9 9 9 8 8 8 8 8 8 8 7 7 7 7 7 7 7 7 7 7 6 5 5 5 5 4 4 4 4
9 9 9 9 8 8 9 9 9 9 9 9 9 9 8 8 8 8 8 8 7 7 7 7 7 7 7 7 7 7 7 7 6 6 5 5 4 4 4 4 4 4
8 8 8 8 8 8 8 9 9 9 9 9 9 8 8 8 8 7 7 7 7 7 7 7 7 7 7 7 7 7 7 6 6 5 4 4 4 4 4 4 4 3
8 7 8 7 8 8 8 8 8 8 9 9 8 8 8 8 7 7 7 7 7 7 7 7 6 6 6 6 7 6 6 6 5 5 4 4 4 4 4 3 3 3
8 7 7 7 7 8 8 8 8 8 8 8 8 8 7 7 7 7 7 6 7 7 6 6 6 6 6 6 6 6 6 5 5 4 4 4 4 3 3 3 3 2
7 7 7 7 7 8 8 8 8 8 8 8 8 7 7 7 7 6 6 6 6 7 6 6 6 6 6 6 6 6 5 5 4 4 4 3 3 3 3 3 2 2
7 7 7 6 6 7 8 8 8 8 8 8 7 7 7 6 6 6 6 6 6 6 6 6 6 6 6 6 6 5 5 4 4 4 3 3 3 3 3 2 2 1
7 6 6 6 6 7 7 7 8 8 8 7 7 7 6 6 6 6 6 6 6 6 6 6 6 6 6 6 5 5 4 4 4 3 3 3 3 3 2 2 2 1
6 6 6 6 6 6 7 7 7 8 7 7 7 6 6 6 6 6 6 6 6 6 5 5 5 6 6 5 5 5 4 4 3 3 3 3 3 2 2 2 1 1
6 6 6 6 6 6 6 7 7 7 7 7 6 6 6 5 5 5 5 5 5 5 5 5 5 5 5 5 4 4 4 4 3 3 3 2 2 2 2 2 1 1
6 6 6 6 6 6 6 6 7 7 6 6 6 5 5 5 5 5 5 5 5 5 5 5 5 5 5 5 4 4 3 3 3 3 2 2 2 2 2 2 1 1
5 5 5 6 5 6 6 6 6 6 6 6 5 5 5 5 5 5 5 5 5 5 5 5 5 5 5 4 4 3 3 3 2 2 2 2 1 1 1 1 1 1
5 5 5 5 5 5 6 6 6 6 6 5 5 5 5 5 4 4 5 5 5 5 5 5 5 5 4 4 4 3 3 2 2 2 1 1 1 1 1 1 1 0
5 4 4 4 4 5 5 5 6 6 5 5 5 5 5 5 4 4 4 4 4 4 4 4 4 4 4 3 3 3 3 2 2 2 1 1 1 0 0 0 0 0
4 3 4 4 4 4 4 5 5 5 5 5 5 5 4 4 4 4 4 4 4 4 4 4 4 4 4 3 3 3 3 2 2 2 1 1 0 0 0 0 0 0
3 3 3 3 3 3 3 4 4 4 4 4 4 4 4 4 4 4 4 4 3 3 3 3 3 3 3 3 3 3 3 2 2 2 1 1 0 0 0 0 0 0
2 2 2 2 2 2 3 3 3 3 4 4 4 3 3 3 3 3 3 3 3 3 3 3 3 3 3 3 3 3 2 2 2 2 1 0 0 -0 0 0 0 -0
2 2 1 1 1 2 2 2 2 3 3 3 3 2 2 2 2 3 3 3 3 3 3 3 3 3 3 3 2 2 2 2 2 2 1 0 0 -0 0 0 0 -0
2 2 1 1 1 1 1 1 1 2 2 2 2 1 1 2 2 2 3 3 3 3 3 3 3 3 3 2 2 2 2 2 2 1 1 0 0 0 0 0 0 -0
2 1 1 1 1 1 1 1 1 1 2 2 1 1 1 1 2 2 2 3 3 3 3 3 3 3 2 2 2 2 1 1 1 1 1 0 -0 -0 -0 0 -0 -0
1 1 1 1 1 1 1 1 1 1 1 1 0 0 1 1 2 2 2 3 3 3 3 3 3 3 2 2 2 1 1 1 1 1 0 -0 -0 -0 -0 -0 -0 -0
1 1 1 1 1 0 0 0 0 -0 -0 -0 -0 -0 0 1 1 2 2 3 3 3 2 3 3 2 2 2 1 1 1 1 1 1 0 -0 -0 -0 -0 -0 -0 -0
1 1 1 0 0 0 -0 -0 -0 -1 -1 -1 -1 -1 -0 1 1 2 2 2 2 2 3 3 3 2 2 1 1 1 0 -0 0 0 -0 -0 -0 -0 -0 -0 -0 -0
1 1 1 0 0 -0 -0 -0 -1 -1 -1 -1 -1 -0 0 1 1 1 1 2 2 3 3 3 3 2 2 1 1 0 -0 -0 -0 -0 -1 -1 -0 -0 -0 -0 -0 -0
1 1 1 0 0 0 -0 -0 -1 -1 -1 -1 -1 -1 -0 0 0 0 1 2 2 2 2 2 2 2 1 1 1 0 -1 -1 -1 -2 -2 -1 -1 -1 -0 -0 -0 -0
1 1 1 0 0 0 -0 -0 -1 -1 -1 -1 -1 -1 -1 -0 -0 0 1 1 1 1 1 1 1 1 1 1 0 -0 -1 -2 -2 -2 -2 -2 -2 -2 -1 -1 -1 -0

ECMWFNIL_925_temp_060.txt.gz
Temp
9 9 9 10 10 10 10 10 10 9 9 8 9 9 9 10 10 10 10 10 10 10 10 9 9 9 9 8 8 8 8 8 8 7 7 7 7 7 7 6 6 6
8 8 8 9 8 8 9 10 10 10 9 9 9 10 10 9 9 9 9 9 9 9 9 9 8 8 8 8 8 8 8 7 7 7 7 7 7 6 6 6 6 5
7 8 8 8 8 8 9 9 9 10 10 9 9 10 10 9 9 9 9 9 9 9 8 8 8 8 8 7 7 7 7 7 7 7 6 6 6 6 6 5 5 5
7 7 8 8 9 9 10 10 9 9 9 9 10 10 9 9 9 9 9 9 8 8 8 8 7 7 7 7 7 7 7 7 7 6 6 6 6 5 5 5 4 4
7 7 8 8 8 9 9 10 10 9 9 9 9 9 9 9 8 8 8 8 8 8 8 7 7 7 7 6 6 6 6 6 6 6 6 6 5 5 4 4 4 4
7 7 8 8 8 8 9 10 9 9 9 9 9 9 9 8 8 8 8 8 8 7 7 7 7 6 6 6 6 6 6 6 6 6 6 6 5 4 4 4 4 4
7 7 8 8 8 8 9 9 9 9 9 9 9 9 8 8 8 8 8 8 7 7 7 7 6 6 6 5 5 5 5 5 5 6 6 5 5 4 4 3 3 3
7 7 8 7 7 7 8 8 8 8 8 8 8 8 8 8 8 8 8 7 7 7 7 6 6 6 5 5 5 5 5 5 5 6 5 5 4 4 4 3 3 2
6 6 7 7 7 7 7 7 7 7 8 8 8 8 8 8 8 8 7 7 7 7 6 6 6 5 5 5 5 5 5 5 5 5 5 5 4 4 4 3 3 2
6 6 6 6 6 6 7 7 7 7 7 7 7 8 7 7 7 7 7 7 6 6 6 6 5 5 5 5 4 5 5 5 5 5 5 4 4 4 3 3 3 2
5 5 5 5 5 5 6 6 6 6 6 6 7 7 7 7 7 7 6 6 6 6 6 5 5 5 5 4 4 4 4 5 5 5 4 4 4 3 3 3 3 2
4 4 4 4 4 4 5 5 5 5 5 6 6 6 6 6 6 6 6 6 6 6 5 5 5 5 4 4 4 4 4 4 4 4 4 4 3 3 3 2 2 2
4 4 4 4 4 4 4 4 5 5 5 5 5 6 6 6 6 6 6 6 5 5 5 5 5 4 4 4 4 4 4 4 4 4 4 3 3 3 2 2 2 2
4 4 4 4 4 4 4 4 4 4 4 4 5 5 6 6 6 6 5 5 5 5 5 4 4 4 4 4 4 4 4 4 4 4 4 3 3 3 2 2 2 2
4 4 4 4 4 3 3 3 3 3 3 4 4 5 5 6 6 5 5 4 4 4 4 4 4 4 4 4 4 4 4 4 4 4 4 3 3 2 2 2 2 1
3 3 3 3 3 3 3 2 2 2 2 3 3 4 5 5 5 4 4 4 4 4 4 4 4 4 4 4 4 4 4 4 4 4 4 3 3 2 2 2 2 1
3 3 2 2 2 2 2 2 2 2 2 2 3 4 4 4 4 3 4 4 4 4 4 4 4 4 4 4 4 4 4 4 4 4 3 3 3 2 2 2 2 2
3 3 2 2 2 2 2 2 3 2 2 2 2 3 3 3 3 3 3 4 4 4 4 4 4 4 4 4 3 3 3 3 3 3 3 3 3 2 2 2 2 2
3 3 2 2 2 2 2 2 2 2 2 2 2 2 2 2 2 3 3 3 3 3 3 4 4 4 4 3 3 3 3 3 3 3 3 2 2 2 2 2 2 2
2 2 2 2 2 2 2 2 2 2 2 2 2 1 1 1 1 2 2 2 3 3 3 3 4 4 3 3 3 3 3 3 3 2 2 2 2 1 1 2 2 2
2 2 2 2 2 2 1 1 1 1 1 1 1 0 0 0 1 1 2 2 3 3 3 3 3 3 3 3 3 3 3 2 2 2 2 1 1 1 1 1 1 1
2 2 2 1 1 1 0 0 0 0 0 0 0 0 -0 0 0 1 1 2 2 2 3 3 3 3 3 3 3 2 2 2 2 2 1 1 1 1 1 1 1 1
2 1 1 1 0 0 -0 -0 -0 -0 -0 0 0 0 -0 -0 -0 0 0 1 1 2 2 3 3 3 3 3 3 2 2 1 1 1 1 1 1 1 1 1 1 1
1 1 1 1 0 0 0 -0 -0 -0 -0 -0 -0 -0 -0 -0 -0 -0 -0 -0 0 1 2 2 3 3 3 3 2 2 2 1 1 0 -0 -0 0 1 1 1 0 0
1 1 1 1 1 0 0 0 -0 -0 -0 -0 -1 -1 -0 -1 -1 -1 -1 -1 -0 0 1 1 2 2 2 2 2 2 1 0 -1 -1 -2 -2 -1 -0 0 0 0 0
1 1 1 1 1 1 0 0 -0 -0 -1 -1 -1 -1 -1 -1 -1 -1 -1 -1 -0 0 0 1 1 1 1 2 2 1 1 -1 -2 -3 -3 -2 -2 -1 -1 -0 -0 -0

ECMWFNIL_925_temp_063.txt.gz
Temp
8 9 9 9 10 10 10 10 10 9 10 11 11 10 10 9 9 10 10 10 11 11 11 11 11 11 11 11 10 10 10 10 10 10 10 10 9 9 9 8 8 8
8 8 9 9 9 9 10 10 10 10 10 11 11 11 10 9 9 10 10 10 10 10 10 10 11 11 11 10 10 10 10 10 10 10 9 9 9 8 8 7 7 6
7 8 8 8 9 9 10 10 10 10 10 10 11 11 10 9 9 9 10 10 10 10 10 10 10 10 10 10 10 10 10 10 9 9 8 8 7 7 6 6 6 6
7 7 8 8 8 9 9 9 9 9 9 9 10 11 10 9 9 9 9 10 10 10 10 10 10 10 10 10 9 9 9 9 8 8 7 7 6 6 6 6 5 5
7 7 7 8 8 9 9 9 9 9 9 9 9 10 9 9 9 9 9 9 9 9 9 9 9 9 9 9 8 8 8 7 7 7 6 6 6 6 5 5 5 5
7 7 7 8 8 8 8 8 8 8 8 9 9 9 9 8 9 9 9 9 9 9 9 9 9 8 8 8 8 7 7 7 7 6 6 6 6 5 5 5 5 5
7 7 7 7 7 7 7 7 8 8 8 8 8 8 8 8 9 9 9 9 9 8 8 8 8 8 8 7 7 7 7 6 6 6 6 6 6 5 5 4 4 4
7 7 7 7 6 6 6 6 7 7 7 8 8 8 8 8 8 8 8 8 8 8 8 8 8 7 7 7 7 6 6 6 6 6 6 5 5 5 4 4 4 4
6 6 6 6 6 6 6 6 6 7 7 8 8 9 8 8 8 8 8 8 8 8 8 7 7 7 7 7 6 6 6 6 6 6 6 5 5 5 4 4 4 4
5 5 5 5 5 5 5 6 6 6 7 7 8 9 8 8 8 8 8 8 8 8 7 7 7 7 6 6 6 6 6 6 5 5 5 5 5 5 4 4 4 4
5 5 5 4 5 5 5 6 6 6 6 6 7 8 8 7 7 7 7 7 7 7 7 7 7 6 6 6 6 6 5 5 5 5 5 5 5 4 4 4 4 4
4 4 4 4 4 4 4 5 5 6 6 6 7 7 7 7 6 6 6 7 7 7 7 7 6 6 6 6 6 5 5 5 5 5 5 5 4 4 4 4 4 4
4 4 4 4 5 5 4 4 4 5 5 6 6 6 6 6 5 5 5 6 6 6 6 6 6 6 6 6 5 5 5 5 4 4 4 4 4 4 4 3 3 3
4 4 4 4 4 5 4 4 4 4 4 4 4 4 5 5 5 5 5 5 5 6 6 6 6 6 5 5 5 5 5 4 4 4 4 4 4 3 3 3 3 3
4 4 4 4 4 4 4 3 3 3 3 3 3 3 4 4 4 5 5 5 5 5 5 5 5 5 5 5 5 5 4 4 4 4 4 4 3 3 3 3 3 3
4 4 4 4 4 4 3 3 3 3 3 3 3 3 3 3 3 3 4 4 5 5 5 5 5 5 5 5 5 5 4 4 4 4 4 3 3 3 3 3 3 3
4 3 3 4 4 3 3 3 3 2 2 3 3 2 2 3 3 3 4 4 4 4 4 5 5 5 5 5 5 4 4 4 4 4 3 3 3 3 3 3 2 2
4 3 3 3 4 3 3 3 3 2 2 3 2 2 2 2 3 3 4 4 4 4 4 5 5 5 5 5 5 4 4 4 3 3 3 3 2 3 3 2 2 1
3 3 3 3 3 3 3 3 2 2 2 2 2 2 2 2 2 3 3 3 3 3 4 4 5 5 5 5 4 4 4 3 3 3 2 2 2 2 2 2 1 1
3 3 3 3 3 3 2 2 2 1 1 1 1 1 0 1 1 1 1 2 2 3 3 4 4 4 5 4 4 4 3 3 2 2 2 2 2 2 2 1 1 1
2 3 2 2 2 1 1 1 1 1 1 0 -0 -0 0 0 0 0 1 1 1 2 2 2 3 4 4 4 4 3 3 2 2 1 1 2 2 2 1 1 1 1
2 2 2 2 1 1 1 0 0 0 0 -0 -0 -1 -1 -1 -1 -1 -0 -0 0 0 1 1 2 2 2 3 3 3 2 1 1 1 1 1 2 2 1 1 1 0
2 2 2 2 1 1 1 1 0 0 -0 -0 -0 -1 -1 -1 -1 -1 -1 -1 -1 -0 -0 0 1 1 1 2 2 2 1 1 0 0 1 1 1 1 1 1 1 0
2 2 2 2 1 1 1 0 0 -0 -1 -1 -1 -1 -1 -1 -1 -1 -1 -1 -1 -1 -1 -1 -0 0 1 1 1 2 1 0 -0 -1 -0 0 1 1 1 1 1 0
2 2 2 2 1 1 0 -0 -0 -1 -1 -1 -1 -1 -1 -1 -2 -2 -2 -2 -1 -1 -1 -1 -1 -0 1 1 1 1 0 -1 -1 -2 -2 -1 -0 0 0 0 -0 -0
1 1 1 1 1 0 0 -0 -0 -1 -1 -1 -1 -2 -2 -2 -2 -2 -2 -2 -2 -1 -1 -1 -0 -0 0 0 -0 -0 -1 -1 -2 -3 -2 -2 -1 -1 -1 -1 -1 -1

ECMWFNIL_925_temp_069.txt.gz
Temp
9 10 9 9 10 10 10 11 11 11 10 10 11 11 12 12 12 12 12 12 12 12 11 11 10 11 11 10 9 7 7 8 8 8 8 8 9 9 9 9 9 9
9 9 9 9 9 10 10 10 11 10 10 10 11 11 12 12 12 12 12 12 12 11 11 11 10 10 10 10 9 8 7 7 7 8 8 8 8 9 9 9 9 8
8 9 8 8 9 9 9 10 10 10 10 10 10 11 11 11 12 11 11 11 11 11 11 10 10 10 9 9 8 7 7 7 7 7 7 8 8 8 8 8 8 8
8 8 8 8 8 9 9 9 10 9 9 10 10 10 10 11 11 11 11 11 11 11 10 10 9 9 8 8 8 7 7 7 7 7 7 7 8 8 8 8 8 8
8 8 8 7 8 8 8 8 9 9 9 9 10 10 10 10 10 10 11 11 10 10 9 9 8 8 8 7 7 7 6 6 7 7 7 7 7 7 8 8 8 7
8 8 7 7 7 8 8 8 8 9 9 9 9 9 9 9 9 10 10 10 10 10 9 8 8 7 7 7 7 6 6 6 7 6 6 7 7 7 7 7 7 7
8 7 7 7 7 8 8 8 8 9 9 9 9 9 9 9 9 9 9 9 9 9 9 8 7 6 6 6 6 5 5 6 6 6 6 6 7 7 7 7 7 7
8 7 6 6 7 7 7 8 8 8 8 8 8 8 9 8 8 9 8 8 8 8 8 7 6 5 5 5 5 5 5 6 6 6 6 6 7 7 7 6 6 6
7 7 6 6 7 7 7 7 7 7 7 8 8 8 8 8 8 8 7 7 7 6 6 6 6 5 4 5 5 6 6 6 6 5 6 6 7 7 7 6 6 6
7 7 6 6 6 6 6 6 6 7 7 8 8 8 7 7 7 7 6 6 6 5 5 5 5 4 4 4 5 6 7 7 6 6 6 7 7 7 7 6 6 6
7 6 6 6 6 6 6 6 6 7 7 7 7 7 7 7 7 6 5 5 5 5 4 4 5 4 4 4 4 5 7 7 6 6 6 7 7 7 7 6 6 6
7 6 6 6 6 6 6 6 6 6 6 6 7 7 6 6 5 5 5 5 5 5 4 4 4 4 4 4 4 5 6 6 6 6 6 6 7 7 6 6 6 6
7 6 6 6 6 6 6 6 6 6 6 6 6 6 5 5 5 5 5 5 4 4 4 4 4 4 4 4 4 5 6 6 6 6 6 6 6 6 6 6 6 5
7 6 6 6 6 6 6 5 5 6 6 5 5 5 5 4 4 5 4 4 3 3 3 3 3 3 4 4 4 5 6 6 6 6 6 6 6 6 6 5 5 4
7 6 6 6 6 5 5 5 5 5 5 5 4 4 4 3 3 4 4 3 3 2 2 2 2 3 3 4 5 5 6 6 6 7 7 6 6 5 5 4 4 3
6 6 6 6 5 5 5 5 5 5 5 4 4 4 3 3 3 3 3 2 2 1 1 2 2 3 4 4 5 6 6 6 6 6 6 6 6 5 4 4 3 3
6 6 6 5 5 5 5 5 5 4 4 4 3 3 2 2 2 2 2 2 1 1 1 2 2 3 4 4 5 6 6 7 6 6 6 6 5 5 4 3 3 2
6 6 5 5 5 5 5 4 4 4 3 3 3 2 2 2 2 2 2 1 1 0 1 1 2 3 3 3 4 4 5 6 6 6 6 5 5 5 4 3 2 2
6 5 5 5 5 5 4 4 4 4 3 3 2 2 1 1 1 1 1 0 0 0 0 1 2 2 3 3 3 4 4 5 6 6 6 6 5 5 4 3 3 2
5 5 5 4 4 4 4 4 3 3 3 3 2 1 1 1 0 0 0 -0 0 0 0 0 1 2 2 3 3 3 3 4 5 5 6 6 5 4 3 3 2 2
5 5 4 4 4 4 4 3 3 3 2 2 2 1 1 1 0 -0 -0 -0 -0 -0 -0 -0 0 1 1 2 2 2 2 2 3 4 4 4 4 3 3 2 2 2
5 5 4 4 3 3 3 3 2 2 2 1 1 0 0 -0 -0 -0 -1 -1 -1 -1 -1 -1 -0 -0 -0 0 1 1 1 1 2 2 3 3 3 3 2 1 1 2
4 4 4 3 3 3 2 2 2 1 1 1 0 -0 -1 -1 -1 -1 -1 -1 -1 -1 -1 -1 -1 -1 -1 -1 -0 -0 -0 0 1 1 2 2 2 2 1 1 1 2
4 4 3 3 3 2 2 2 1 1 1 0 0 -0 -1 -1 -1 -1 -1 -1 -1 -1 -1 -1 -1 -1 -1 -1 -1 -1 -1 -0 0 1 1 1 1 1 1 1 2 2
4 3 3 3 2 2 2 1 1 1 0 -0 -0 -0 -1 -1 -1 -1 -1 -2 -2 -1 -1 -1 -2 -2 -2 -1 -1 -1 -1 -0 0 0 0 0 0 1 1 1 1 1
3 3 3 2 2 2 1 1 1 0 -0 -1 -1 -1 -1 -1 -1 -1 -2 -2 -2 -2 -2 -2 -2 -2 -2 -1 -1 -0 -0 0 0 0 1 0 1 1 1 1 1 1

ECMWFNIL_925_temp_072.txt.gz
Temp
11 11 11 11 11 11 11 11 11 11 10 10 10 11 11 11 12 12 12 12 11 11 12 12 11 11 11 11 10 10 10 9 9 9 8 8 8 9 9 9 9 9
11 11 10 10 10 10 11 11 11 11 11 10 11 11 11 12 12 12 12 12 12 12 12 12 11 11 10 10 10 10 9 9 9 8 8 8 8 8 8 9 9 9
10 10 10 10 10 10 10 10 11 11 11 11 11 11 11 12 12 12 12 12 12 12 12 11 11 11 10 10 10 9 9 9 8 8 8 8 8 8 8 8 8 8
10 10 10 9 9 9 10 10 10 10 10 10 11 11 11 11 11 11 11 11 12 12 11 11 11 11 10 10 9 9 9 8 8 7 7 7 7 7 7 8 8 8
10 10 10 9 9 9 9 9 9 10 10 10 10 10 10 10 10 10 11 11 11 11 10 10 10 10 10 9 9 8 8 7 7 7 7 7 7 7 7 7 7 7
10 10 9 9 9 9 8 8 9 9 9 10 10 10 10 10 10 10 10 10 10 10 9 9 9 9 9 8 8 7 7 6 6 6 6 6 6 6 6 6 6 6
10 9 9 9 8 8 8 8 8 8 9 9 9 9 9 9 9 9 10 10 9 9 9 8 9 9 8 7 7 7 6 6 6 6 6 6 6 6 6 6 6 6
10 9 9 9 8 8 8 7 7 8 8 8 9 9 9 9 9 9 9 9 9 8 8 8 8 8 7 7 7 6 6 6 6 5 5 5 5 5 5 5 5 5
10 9 9 9 8 8 7 7 7 7 7 8 8 8 9 9 9 9 9 9 8 7 7 7 7 7 6 6 6 6 6 5 5 5 5 5 5 5 5 5 5 5
10 9 9 8 8 8 7 7 7 7 7 7 8 8 8 8 8 8 9 8 7 7 7 7 7 6 6 6 6 6 6 5 5 4 4 5 5 5 5 5 5 5
9 9 9 8 8 8 7 7 7 7 7 7 7 7 7 8 7 8 8 7 7 7 6 6 6 6 6 5 5 5 5 5 4 4 4 4 5 5 5 5 5 5
9 9 9 8 8 7 7 7 6 6 6 7 7 7 7 7 7 7 7 7 7 7 6 6 6 6 5 5 4 4 4 4 4 4 4 4 4 4 5 5 5 6
9 9 9 8 8 7 7 7 6 6 6 6 6 6 6 6 6 6 6 7 7 6 6 5 5 5 4 4 4 4 4 4 3 3 3 4 4 4 4 5 5 6
9 9 9 8 7 7 7 6 6 6 6 6 6 6 6 6 6 6 6 6 6 5 5 4 4 4 3 3 3 3 3 3 3 3 3 3 3 4 4 5 5 5
9 9 8 8 7 7 7 6 6 6 6 5 5 5 5 5 5 5 5 5 4 4 4 4 3 3 3 3 3 3 3 3 3 3 3 3 3 3 4 4 5 5
9 8 8 7 7 6 6 6 6 6 5 5 5 5 5 5 5 4 4 4 4 3 3 3 2 2 2 2 3 3 3 2 3 3 3 3 3 3 3 4 4 4
8 8 7 7 7 6 6 6 6 5 5 5 5 4 4 4 4 4 4 3 3 3 2 2 2 2 2 2 2 2 2 2 2 2 3 3 3 3 3 3 3 3
8 7 7 7 6 6 6 6 5 5 5 4 4 4 4 3 3 3 3 3 2 2 2 2 2 2 2 2 2 2 2 2 2 3 3 3 3 4 4 3 3 3
7 7 7 6 6 6 5 5 5 5 4 4 4 4 3 3 3 3 3 2 2 1 1 1 1 1 1 1 1 1 1 2 2 3 3 3 3 4 4 3 3 3
7 7 7 6 6 5 5 5 4 4 4 4 3 3 3 3 2 2 2 2 1 1 1 1 1 1 1 1 1 1 1 2 2 2 3 3 3 4 4 3 3 3
7 7 6 6 5 5 5 4 4 4 3 3 3 3 3 3 2 2 1 1 1 1 0 0 0 0 0 1 1 1 1 2 2 2 2 3 3 3 3 3 3 3
7 6 6 5 5 4 4 4 3 3 3 3 3 2 2 2 2 1 1 0 0 -0 -0 -1 -1 -1 -0 0 0 1 1 1 2 2 2 2 2 2 3 3 3 3
6 6 5 5 4 4 4 3 3 3 3 3 2 2 1 1 1 1 0 -0 -0 -1 -1 -1 -1 -1 -1 -0 -0 0 1 1 1 1 1 1 1 2 3 3 2 2
6 5 5 4 4 4 3 3 3 3 3 2 2 2 1 1 0 -0 -1 -1 -1 -1 -1 -1 -1 -1 -1 -0 -0 0 0 0 1 1 1 1 1 2 2 2 1 1
5 5 5 4 4 3 3 3 2 2 2 2 1 1 1 -0 -0 -1 -1 -1 -1 -1 -1 -1 -1 -1 -1 -1 -1 -1 -0 -0 0 0 0 0 1 1 1 1 1 0
5 5 4 4 4 3 3 2 2 1 1 1 0 0 0 -1 -1 -1 -1 -1 -1 -1 -1 -1 -1 -2 -2 -2 -1 -1 -1 -1 -0 -0 0 -0 0 0 0 -0 -0 -0

ECMWFNIL_925_temp_075.txt.gz
Temp
13 13 13 13 13 13 12 12 12 12 11 11 11 10 10 9 10 10 11 11 11 12 12 12 12 12 12 12 12 11 11 11 11 10 10 9 9 9 9 8 8 8
13 13 12 12 12 12 12 12 12 11 11 11 11 11 10 10 9 10 10 11 11 11 11 11 12 12 11 11 11 10 10 10 10 10 10 9 9 9 9 9 8 8
12 12 12 12 12 12 12 11 11 11 11 11 11 11 10 10 9 9 10 10 10 10 10 11 11 11 10 10 10 10 10 10 10 10 10 9 9 9 9 8 8 8
12 12 12 12 12 11 11 11 11 11 10 10 11 11 11 10 10 9 9 10 10 10 10 10 10 10 10 10 10 10 10 10 10 10 9 9 9 8 8 8 7 8
12 12 12 12 12 11 11 11 10 10 10 10 10 10 10 10 10 10 10 10 10 10 10 10 9 9 9 9 9 9 10 10 10 10 9 9 8 8 8 8 7 7
12 12 12 12 11 11 11 10 10 10 10 10 10 10 10 10 10 10 10 10 10 10 10 10 9 9 9 9 9 9 9 9 9 9 9 8 8 7 7 7 7 7
12 12 11 11 11 11 10 10 10 10 9 10 9 10 10 10 10 10 10 10 10 10 10 9 9 9 9 8 8 8 8 8 8 8 8 8 7 7 6 6 7 7
12 12 11 11 10 10 10 10 10 9 9 9 9 9 9 9 9 9 9 9 9 10 9 9 9 8 8 8 8 8 7 7 7 7 7 7 6 6 6 6 6 6
12 11 11 11 10 10 10 10 9 9 9 9 8 8 8 8 8 9 9 9 9 9 9 8 8 8 8 8 7 7 7 7 7 6 6 7 6 6 6 5 5 5
11 11 11 10 10 10 10 10 9 9 8 8 8 8 8 8 8 8 8 8 9 9 8 8 8 8 7 7 7 7 6 6 6 6 6 6 6 6 5 5 5 5
11 11 11 10 10 10 10 9 9 8 8 8 7 7 7 7 8 8 8 8 8 8 8 8 8 8 7 7 7 6 6 6 6 6 6 6 6 5 5 5 5 4
11 11 11 10 10 10 10 9 9 8 8 7 7 7 7 7 7 7 7 7 8 8 8 8 8 7 7 7 6 6 5 5 5 5 5 5 5 5 5 5 4 4
11 11 11 11 10 10 9 9 9 8 8 7 7 7 7 6 6 7 7 7 7 7 7 7 7 7 7 6 6 5 5 5 4 4 4 4 4 4 4 4 4 4
11 11 11 10 10 10 9 9 9 8 8 7 7 6 6 6 6 6 6 6 6 7 7 7 6 6 6 6 5 5 4 4 4 4 4 4 3 3 3 3 3 3
11 11 11 10 10 9 9 9 8 8 8 7 6 6 6 6 6 6 6 6 6 6 6 6 6 6 6 5 5 4 4 3 3 3 3 3 3 3 2 2 2 3
11 10 10 10 9 9 8 8 8 8 7 7 6 6 6 5 5 5 5 5 5 5 5 5 5 5 5 5 5 4 3 3 3 3 3 3 2 2 1 1 2 2
11 10 10 9 9 9 8 8 7 7 7 6 6 5 5 5 5 5 5 5 5 5 5 5 5 5 5 4 4 3 3 2 2 2 2 2 2 1 1 0 1 1
10 10 9 9 8 8 8 7 7 7 6 6 5 5 5 4 4 4 4 4 4 4 4 4 4 4 4 3 3 2 2 2 2 2 2 2 1 1 1 1 1 1
9 8 8 8 8 8 7 7 6 6 6 5 5 5 4 4 4 4 4 4 4 3 3 3 3 3 3 2 2 2 2 2 2 2 2 1 1 1 1 1 1 1
8 8 8 8 8 7 7 7 6 6 6 5 5 4 4 3 3 3 3 3 3 3 3 3 3 2 2 2 1 1 1 1 2 2 2 1 1 1 1 2 2 2
8 8 8 7 7 7 6 6 6 5 5 5 4 4 4 3 3 3 3 3 3 2 2 2 2 2 1 1 1 0 1 1 1 1 1 1 1 1 1 2 2 2
9 8 7 7 6 6 6 5 5 5 5 4 4 3 3 3 3 3 3 3 2 2 1 1 1 1 0 1 1 0 1 1 1 1 1 1 0 0 1 1 1 2
8 7 7 6 6 5 5 5 4 4 4 4 3 3 2 2 2 2 2 2 2 1 0 0 0 0 0 1 1 1 1 0 0 0 0 0 -0 -0 0 0 1 1
8 7 7 6 6 5 5 4 4 4 4 3 3 2 2 2 2 2 2 1 1 0 -0 -0 -0 -0 0 0 0 1 1 0 0 -0 -0 -1 -1 -1 -0 0 0 1
7 7 6 6 5 5 5 4 4 4 3 3 2 2 2 2 1 1 1 0 -0 -0 -0 -0 -0 -0 -0 -0 0 0 0 0 0 -0 -1 -1 -1 -1 -1 -1 0 1
7 6 6 6 5 5 4 4 4 3 2 2 1 1 1 1 0 0 -0 -0 -1 -1 -1 -1 -1 -1 -1 -1 -0 -0 -0 0 -0 -1 -1 -2 -2 -2 -2 -2 -0 1

ECMWFNIL_925_temp_078.txt.gz
Temp
14 14 14 14 14 14 14 14 13 13 13 13 13 13 13 13 13 13 13 12 12 11 11 12 12 12 12 13 13 12 11 10 10 11 12 11 10 10 9 8 8 8
14 14 14 14 14 14 13 13 13 13 13 13 13 13 13 12 12 12 12 11 11 11 11 11 11 11 12 12 13 12 11 10 10 11 11 11 11 10 9 8 8 8
14 14 14 14 14 13 13 13 13 13 13 13 13 12 12 12 12 11 11 11 10 10 10 10 10 11 11 11 12 12 12 11 11 11 11 11 11 10 8 8 8 8
14 14 14 14 14 13 13 13 13 12 12 12 12 12 11 11 11 11 10 10 10 10 9 9 9 10 11 11 11 12 12 11 11 11 10 10 10 9 8 8 8 8
14 14 13 13 13 13 13 12 12 12 12 12 11 11 11 11 10 10 10 10 10 10 9 9 9 10 10 10 11 11 11 11 11 10 10 9 9 9 8 8 8 8
13 13 13 13 13 13 12 12 12 12 12 11 11 11 11 10 10 10 10 10 10 10 9 9 9 9 10 10 10 10 10 10 10 9 9 9 8 8 8 8 8 8
13 13 13 13 12 12 12 12 12 12 11 11 11 10 10 10 10 10 10 10 10 9 9 9 9 9 9 10 9 9 9 9 9 9 8 8 8 8 7 7 7 7
12 12 12 12 12 12 12 12 12 11 11 11 10 10 10 10 9 9 10 10 9 9 9 9 9 9 9 9 9 9 9 9 9 8 8 8 8 7 7 7 7 7
12 12 12 12 12 12 12 12 12 11 11 10 10 10 10 9 9 9 9 9 9 9 9 9 9 9 9 9 9 8 8 8 8 8 8 8 8 8 7 7 7 6
12 12 12 11 11 11 12 11 11 11 10 10 10 9 9 9 9 9 9 9 9 9 8 8 8 8 8 8 8 8 8 8 8 8 8 8 8 8 7 7 6 6
12 12 11 11 11 11 11 11 11 11 10 10 10 9 9 9 8 8 8 8 8 8 8 8 8 8 8 8 8 8 7 7 7 7 8 8 8 7 7 7 6 6
13 13 13 12 12 11 11 11 11 10 10 10 9 9 9 8 8 8 8 8 7 7 8 8 8 8 8 8 8 7 7 7 7 7 7 7 7 7 6 6 6 6
14 15 16 16 15 13 12 11 11 10 10 10 9 9 9 8 8 8 8 7 7 7 7 7 7 7 7 7 7 7 6 6 6 6 6 6 6 6 6 6 5 5
15 15 16 16 16 15 13 11 11 10 10 10 9 9 8 8 8 8 7 7 7 7 7 7 7 7 7 7 7 6 6 6 5 5 5 5 5 5 5 5 5 5
16 15 14 13 13 12 12 11 10 10 9 9 9 9 8 8 8 7 7 7 6 6 6 6 7 6 6 6 6 6 6 5 5 5 4 4 4 4 4 4 4 4
15 13 12 11 10 10 10 9 9 9 9 9 9 8 8 8 7 7 7 6 6 6 6 6 6 6 6 6 6 6 6 5 5 4 4 4 3 3 3 3 3 3
13 12 11 10 10 9 9 9 9 9 8 8 8 8 8 7 7 6 6 6 6 6 5 6 6 6 6 6 5 5 5 5 4 4 4 3 3 3 3 3 2 2
13 12 11 10 10 10 9 9 8 8 8 8 8 8 7 7 6 6 6 5 5 5 5 5 5 5 5 5 5 5 4 4 4 4 3 3 2 3 3 2 2 1
12 10 10 10 10 10 9 8 8 8 8 7 7 7 7 6 6 6 5 5 5 5 5 5 5 5 5 5 5 4 4 3 3 3 2 2 2 2 2 2 1 0
11 10 9 9 9 8 8 7 7 7 7 7 7 6 6 6 5 5 5 5 5 4 4 4 5 5 4 4 4 4 3 2 2 2 2 2 2 2 1 1 1 0
10 9 9 8 8 7 7 7 7 6 6 6 6 6 6 6 5 5 5 4 4 4 4 4 4 4 4 4 3 3 2 1 1 1 1 1 1 1 1 1 0 -0
9 9 8 8 7 7 6 6 6 6 6 5 5 5 5 5 5 4 4 4 4 4 3 3 4 4 4 3 2 2 1 1 0 1 1 1 0 0 0 0 -0 -0
9 8 8 7 7 6 6 6 6 6 6 5 5 4 4 4 4 4 4 4 3 3 3 3 3 3 3 2 2 1 0 0 0 0 0 0 0 -0 -0 -0 -1 -0
9 8 8 7 6 6 6 6 6 6 5 5 5 4 4 4 4 3 3 3 3 3 3 3 3 3 2 2 1 1 -0 -0 -0 -0 -0 -0 -1 -1 -1 -1 -1 -1
9 8 8 7 6 6 6 6 6 5 5 5 4 4 4 4 3 2 2 2 2 2 2 2 2 2 1 1 1 0 -0 -0 -0 -0 -1 -1 -1 -2 -2 -2 -1 -1
9 8 8 7 7 6 6 5 5 5 4 4 3 3 3 2 2 2 1 1 1 1 1 1 1 1 1 0 0 -0 -0 -0 -0 -1 -1 -2 -2 -2 -3 -3 -2 -2

ECMWFNIL_925_temp_084.txt.gz
Temp
15 15 15 14 14 14 14 14 13 13 13 13 13 13 13 13 13 13 13 13 13 12 12 12 12 12 13 13 13 13 12 12 12 12 12 11 11 11 10 10 9 9
15 15 15 15 14 14 14 14 14 13 13 13 13 13 13 13 13 13 12 12 12 12 12 12 12 12 12 12 12 12 12 12 12 12 11 11 11 11 10 10 10 9
15 15 15 15 14 14 14 14 14 13 13 13 13 13 13 13 13 12 12 12 12 12 12 12 12 12 12 11 11 11 11 11 11 11 11 10 10 10 10 10 10 10
15 15 14 14 14 14 14 13 13 13 13 13 13 13 13 13 12 12 12 12 12 12 12 12 12 12 11 11 11 10 10 10 10 10 10 9 9 9 9 9 9 9
15 14 14 14 14 14 13 13 13 13 13 13 13 13 12 12 12 12 12 12 12 11 11 11 11 11 11 11 11 10 10 10 10 9 9 9 8 8 9 9 9 9
15 15 14 14 14 13 13 13 13 13 14 14 13 13 12 12 12 12 12 11 11 11 11 11 11 11 11 10 10 10 10 10 10 9 9 9 8 8 8 8 9 9
15 14 14 14 13 13 13 13 13 13 13 13 13 13 13 13 13 13 12 12 11 11 11 11 11 10 10 10 10 10 10 10 10 9 9 9 8 8 8 8 8 8
14 14 13 13 13 13 13 13 13 13 12 12 12 13 12 12 13 13 13 13 12 12 11 10 10 10 10 10 9 9 9 9 9 9 9 8 8 8 8 8 8 8
15 14 13 13 13 13 13 13 12 12 12 12 11 12 11 11 11 11 11 12 12 12 11 11 10 10 10 9 9 9 9 9 9 9 9 8 8 8 8 7 7 8
15 14 13 13 13 13 13 13 12 12 12 11 11 11 11 11 11 11 10 10 10 11 11 11 11 10 10 9 9 9 9 9 9 9 8 8 8 8 7 7 7 7
15 14 13 13 13 13 13 13 12 12 11 11 11 11 11 11 11 11 11 10 10 10 10 11 10 10 10 10 9 9 9 8 9 8 8 8 8 7 7 7 7 6
14 14 13 13 13 13 13 12 12 12 12 12 11 11 11 11 11 11 11 11 11 11 11 11 10 10 10 10 9 9 8 8 8 8 8 8 7 7 7 7 6 6
14 14 13 13 13 13 13 12 12 12 12 12 11 11 11 11 11 11 11 10 10 10 10 10 10 10 9 9 9 8 8 8 8 8 7 7 7 7 7 6 6 6
13 13 13 13 13 13 13 12 12 11 11 11 11 11 10 10 10 10 9 9 9 9 9 9 9 9 9 9 8 8 8 7 7 7 7 7 7 6 6 6 6 6
12 12 13 13 13 13 13 12 12 11 11 11 10 10 10 9 9 9 8 9 9 9 9 8 8 8 8 8 8 8 7 7 7 7 7 6 6 6 6 6 6 6
12 12 13 13 13 12 12 12 12 11 11 11 10 10 9 9 8 8 8 8 8 8 8 8 8 8 8 8 8 8 7 7 6 6 6 6 6 5 5 5 5 5
11 12 12 12 12 12 12 11 11 11 10 10 10 9 9 9 8 8 8 8 8 8 7 7 7 8 8 8 8 7 6 6 6 6 6 5 5 5 5 5 5 5
9 10 10 11 11 11 11 11 11 10 10 9 9 9 8 8 7 7 7 7 7 7 7 7 7 7 7 7 7 6 6 6 6 6 5 5 5 5 4 4 4 5
8 8 9 9 10 10 10 11 11 11 10 9 9 8 7 7 7 7 6 6 6 6 6 7 7 7 7 7 6 6 6 6 5 5 5 5 4 4 4 4 4 4
9 8 9 9 9 9 9 10 10 10 10 10 9 8 7 7 7 6 6 6 6 6 6 6 6 6 6 6 6 6 5 5 5 5 5 5 4 4 4 3 3 3
9 9 9 9 9 9 9 9 9 9 9 9 8 8 8 7 7 7 7 6 6 5 5 5 5 5 5 5 5 5 5 5 4 4 4 4 4 4 3 3 3 3
7 8 8 8 8 8 7 7 7 7 7 7 7 7 7 7 7 7 6 6 6 5 5 5 5 5 5 5 5 4 4 4 4 4 3 3 3 3 3 3 2 2
7 7 7 7 7 7 6 6 5 5 6 6 6 6 6 6 6 6 6 5 5 5 4 5 5 5 5 5 4 4 4 3 3 3 3 3 3 3 2 2 2 1
7 7 7 7 7 6 6 6 5 5 5 5 4 4 5 5 5 5 5 4 4 4 4 4 4 4 4 4 4 3 3 3 3 2 2 2 2 2 2 1 1 1
8 7 7 6 6 6 6 5 5 5 4 4 4 4 4 4 4 4 4 4 4 4 4 3 3 4 3 3 3 3 3 2 2 2 1 1 1 1 1 1 1 0
7 7 7 6 6 6 6 5 5 5 5 4 3 3 3 3 3 2 3 3 3 3 3 3 3 3 3 3 3 3 2 2 1 1 1 1 1 1 0 0 -0 -0

ECMWFNIL_925_temp_087.txt.gz
Temp
14 14 14 14 14 14 13 13 13 13 13 13 13 13 13 13 13 13 13 13 13 12 12 12 12 12 12 12 12 12 12 13 13 12 12 12 12 11 11 11 10 10
15 15 14 14 14 14 14 14 13 13 13 13 12 12 13 13 12 12 12 12 12 12 12 12 12 11 11 11 11 12 12 12 12 12 12 12 12 11 11 10 10 9
15 15 14 14 14 14 14 13 13 13 13 13 13 13 13 13 12 12 12 12 12 12 12 12 12 11 11 11 11 11 11 11 11 11 11 11 11 11 11 11 10 10
15 15 14 14 14 13 13 13 13 13 13 13 13 13 12 12 12 12 12 12 12 12 12 12 12 12 11 11 11 11 11 11 10 10 10 10 10 10 10 10 10 10
15 15 14 14 14 14 13 13 13 13 12 12 12 12 12 11 11 11 11 12 12 12 12 12 12 12 12 11 11 11 11 11 10 10 9 9 9 9 10 9 9 9
15 14 15 15 14 14 13 13 13 12 12 12 12 12 11 11 11 11 11 11 11 11 11 11 11 11 11 11 11 11 11 11 10 9 9 9 9 9 9 9 8 8
15 14 15 15 14 13 13 13 12 12 12 11 11 12 11 11 11 11 11 11 10 10 10 10 10 10 10 10 10 10 10 10 10 9 9 8 8 8 8 8 8 8
14 14 14 14 13 13 13 12 12 12 11 11 11 12 11 11 11 11 10 10 10 10 10 10 10 10 10 10 9 10 10 10 10 9 9 8 8 7 7 8 8 8
14 14 13 13 12 12 12 12 12 12 11 11 12 11 11 11 10 10 10 9 9 10 10 10 10 10 9 9 9 10 10 10 10 9 9 8 8 7 7 7 7 8
14 14 13 13 12 12 12 12 12 12 12 12 11 11 11 11 10 10 9 9 9 9 9 9 9 9 9 9 9 9 9 10 9 9 9 8 7 7 7 7 7 7
14 14 14 14 13 13 13 13 13 12 12 12 11 11 11 11 11 10 10 9 9 9 9 9 9 8 8 8 9 9 9 9 8 8 7 7 7 7 6 6 7 7
14 14 14 14 14 14 14 14 13 13 13 12 12 12 12 11 11 10 10 9 9 9 9 9 8 8 8 8 8 8 8 8 8 7 7 7 6 6 6 6 7 7
14 14 14 14 14 14 14 14 14 14 14 13 13 12 12 11 11 10 10 9 9 9 9 9 8 8 8 8 8 8 7 7 7 7 6 6 6 6 6 6 7 7
13 13 13 13 13 14 14 14 14 14 14 14 13 13 12 12 11 11 10 10 9 9 9 8 8 8 8 8 8 8 7 7 6 6 6 6 6 6 6 6 7 7
12 12 12 13 13 13 13 13 13 13 13 13 13 13 12 12 12 12 11 11 11 10 9 9 8 8 9 8 8 7 7 6 6 5 5 5 5 6 6 6 6 6
12 12 12 12 12 12 12 12 12 13 13 13 12 12 12 12 12 12 11 11 10 10 10 9 9 9 9 9 8 7 6 6 5 5 5 5 5 5 6 6 6 6
11 11 11 11 10 10 10 11 11 11 11 11 11 11 11 11 11 11 11 10 9 9 9 9 9 9 9 8 8 7 6 5 5 5 5 5 5 5 5 5 5 5
10 10 10 10 9 9 9 9 9 10 10 10 10 10 10 10 10 10 9 9 8 8 8 8 8 7 7 7 7 7 6 5 4 4 4 4 4 5 5 5 5 5
9 10 10 9 9 9 9 9 9 9 9 8 8 9 9 9 9 8 8 8 7 7 7 7 7 7 6 6 6 6 6 4 3 3 4 4 4 4 4 4 4 4
9 9 10 10 9 9 9 9 9 9 9 8 8 8 8 8 8 8 7 7 7 6 6 6 7 6 6 5 5 5 5 4 3 3 3 3 3 4 4 4 4 4
9 9 9 9 9 9 9 8 8 8 8 8 7 7 7 7 7 7 7 7 6 6 6 6 7 6 5 5 5 4 4 3 3 3 3 3 3 3 3 3 3 4
7 8 8 8 8 8 8 7 7 8 8 7 7 7 6 6 6 5 5 6 6 5 5 6 6 6 5 5 4 4 4 3 2 2 2 2 2 3 3 3 3 3
7 7 7 7 7 7 7 7 7 7 7 6 6 7 7 6 6 6 5 5 5 5 4 5 6 6 5 5 4 4 3 2 2 2 2 2 2 2 2 2 2 2
6 6 6 6 6 6 6 7 7 7 7 6 5 6 6 6 5 6 6 5 5 5 4 4 5 5 4 4 4 4 3 2 1 1 1 1 1 1 2 2 2 2
5 5 5 5 6 5 5 5 6 6 6 6 5 5 5 5 5 5 6 6 5 5 4 3 4 5 4 4 4 4 3 2 1 0 0 1 1 1 1 1 1 1
5 5 5 5 5 5 5 5 5 5 5 5 5 5 5 5 5 4 5 6 5 4 4 3 3 4 4 3 3 3 3 2 0 -0 -0 0 0 0 0 0 0 1

ECMWFNIL_925_temp_093.txt.gz
Temp
13 12 12 12 12 12 12 12 12 12 12 12 12 12 12 12 12 11 12 12 11 11 11 11 12 12 12 12 12 12 12 13 13 13 13 12 12 12 12 12 12 11
14 14 14 14 13 13 13 13 12 12 11 11 11 12 12 12 11 11 11 11 11 11 11 11 11 11 11 11 11 12 12 12 12 12 12 12 12 12 12 12 12 11
15 15 15 15 14 14 13 13 12 11 11 10 11 11 11 11 11 10 10 10 10 10 10 10 10 10 10 10 11 11 11 11 11 11 11 11 11 11 11 11 11 11
16 16 15 15 14 14 13 13 12 11 11 10 11 11 10 10 10 10 10 10 9 9 9 9 9 10 10 10 10 10 10 10 10 10 10 10 10 10 10 10 10 11
15 15 14 14 13 13 13 13 12 12 11 11 11 11 11 10 10 10 10 10 9 9 9 9 9 9 9 9 9 9 9 9 9 9 9 10 10 10 10 10 10 10
14 14 14 13 13 13 13 12 12 12 12 12 12 12 12 11 12 11 11 11 10 9 9 9 9 9 8 8 8 8 8 8 8 8 8 8 8 8 8 9 9 9
13 13 13 13 13 13 13 13 13 13 13 13 13 12 12 12 12 12 11 11 10 10 10 9 9 8 8 8 8 7 7 7 7 7 7 7 7 8 8 8 8 8
13 13 13 13 13 13 13 13 13 13 13 13 13 13 12 12 12 12 12 11 11 11 10 10 10 9 8 8 7 7 7 7 7 6 6 6 6 7 7 7 7 7
13 12 13 13 13 13 13 13 13 13 13 13 12 12 12 12 12 12 12 12 12 11 11 11 11 10 10 9 9 8 7 7 7 6 6 6 6 6 6 6 6 6
13 12 12 13 13 13 13 13 13 13 13 12 12 12 12 12 12 12 12 12 12 12 12 11 11 11 11 10 10 9 8 8 7 6 6 5 5 5 5 5 5 5
12 12 12 12 12 12 12 12 12 12 12 12 12 12 12 12 12 12 12 12 12 12 12 11 11 11 11 10 10 9 9 9 8 7 6 6 5 5 4 4 4 4
11 11 11 11 12 12 12 12 12 12 12 12 12 12 12 12 12 12 12 12 11 11 11 11 11 10 10 9 9 8 8 8 8 7 7 7 6 5 4 3 3 3
11 11 11 11 11 11 11 11 11 11 11 11 11 11 11 11 11 11 11 11 11 11 11 11 11 10 9 9 8 8 7 7 7 7 7 6 6 5 4 4 3 3
10 10 11 11 11 11 11 11 11 11 11 11 11 11 11 11 11 11 11 11 11 11 11 10 10 10 10 9 9 8 7 7 7 7 7 7 7 6 6 5 4 4
10 10 10 10 10 10 10 11 11 10 11 11 10 10 10 10 10 10 11 11 11 10 10 10 10 10 10 9 9 9 8 8 7 7 7 7 8 8 8 7 6 6
10 10 10 10 10 10 10 10 10 10 10 10 10 10 10 10 10 10 10 9 9 9 9 10 10 10 9 9 9 8 8 7 7 7 7 7 7 8 9 9 8 7
10 10 10 10 10 10 10 10 10 10 10 10 10 9 9 9 9 8 8 8 8 8 8 8 9 9 9 9 8 8 7 7 6 6 6 6 6 6 7 7 8 7
9 9 9 9 9 9 9 9 9 9 9 9 9 9 8 8 8 7 7 7 7 7 7 7 8 8 8 8 8 8 7 6 6 5 5 5 4 4 5 5 5 5
8 8 8 8 8 8 8 8 8 8 8 7 7 7 7 7 7 7 7 7 6 6 6 6 7 7 8 7 7 7 7 6 5 5 5 4 4 3 3 3 3 3
7 7 7 7 7 7 7 7 7 7 7 6 6 6 6 7 7 6 6 6 6 6 6 6 6 7 7 7 7 7 6 5 5 5 4 4 4 3 3 3 2 2
6 6 6 6 6 6 7 7 7 7 7 6 6 6 6 6 6 6 6 6 6 5 5 6 6 6 6 7 6 6 5 5 4 4 4 3 3 3 2 2 2 1
5 5 5 6 6 6 6 7 7 7 7 6 5 6 6 6 5 5 5 5 5 5 5 5 7 7 6 7 6 5 5 4 4 3 3 3 3 3 3 2 2 2
3 4 4 5 5 5 6 6 6 6 6 5 5 5 6 5 5 5 5 5 5 5 5 5 7 7 7 6 7 5 4 4 4 3 3 3 3 3 2 2 2 2
2 2 3 4 4 5 5 5 5 5 5 4 4 4 5 5 4 5 6 6 5 6 6 5 6 8 7 6 6 5 4 3 3 3 2 3 3 3 3 2 2 2
1 2 3 3 4 4 4 4 4 4 4 4 4 4 5 5 4 4 6 7 7 6 6 6 6 8 8 7 6 6 4 3 2 2 2 2 3 2 2 2 2 2
2 3 3 4 4 5 5 5 5 5 4 4 5 5 4 5 5 5 5 7 7 6 7 7 6 7 8 8 7 6 5 3 2 1 1 1 1 1 1 1 2 2

ECMWFNIL_925_temp_096.txt.gz
Temp
12 12 12 11 12 12 12 12 12 12 12 12 12 12 12 12 12 12 12 12 11 11 11 11 11 11 11 11 11 11 11 11 11 11 11 12 12 12 12 12 12 12
11 11 11 11 11 11 11 12 12 12 12 12 12 12 12 12 12 12 12 12 12 11 10 10 10 9 9 9 10 10 10 10 10 10 10 11 11 11 11 11 11 11
11 11 11 12 12 12 12 12 12 12 12 12 12 11 12 12 12 12 11 11 11 11 10 10 9 8 9 9 9 9 9 9 9 9 10 10 10 10 10 10 10 10
13 13 13 13 13 13 13 13 12 12 12 12 12 12 12 12 11 11 11 11 11 10 10 9 9 8 8 9 8 9 9 9 9 9 9 9 9 9 9 9 9 9
14 14 14 14 13 13 13 13 13 12 12 12 12 12 12 12 12 12 12 12 11 11 10 10 9 9 9 8 8 8 8 8 8 7 7 7 7 7 7 7 8 8
14 14 14 14 13 13 13 13 13 12 12 12 12 12 12 13 13 13 13 12 12 12 11 11 11 11 10 9 9 8 8 7 7 7 6 6 6 7 6 6 6 6
14 14 14 14 13 13 13 13 12 12 12 12 12 12 13 13 13 13 12 12 12 12 12 12 12 11 11 11 10 10 9 8 8 7 7 7 7 7 7 5 5 5
13 13 13 13 13 13 13 13 12 12 12 12 12 12 12 13 13 13 13 13 13 13 12 12 12 12 11 11 11 11 10 10 9 9 9 9 8 8 8 6 5 5
12 12 12 12 12 12 12 12 12 12 12 12 12 12 13 13 13 13 13 13 12 12 12 12 12 11 11 11 10 10 10 10 10 9 9 9 9 8 8 7 5 5
12 12 12 12 12 12 12 12 12 12 12 13 13 13 13 13 12 12 12 12 12 12 11 11 11 10 10 10 9 9 8 8 8 8 8 7 7 7 7 6 5 4
11 12 12 12 12 12 12 12 12 12 12 12 12 12 12 12 12 11 11 11 11 11 11 10 10 10 9 9 8 8 7 7 7 7 7 7 7 7 6 6 5 4
11 12 12 12 12 12 12 12 12 12 12 11 11 11 11 11 11 11 11 10 10 10 10 10 10 9 9 9 9 8 8 8 8 8 8 8 8 8 8 7 6 6
11 11 11 11 11 11 11 11 11 11 11 10 10 10 10 10 10 10 10 10 10 10 10 10 10 10 9 9 9 9 8 8 8 8 9 9 9 8 8 8 8 8
10 10 10 10 10 10 10 10 10 10 10 10 10 10 10 10 10 10 10 10 10 10 10 10 10 9 9 9 9 8 8 8 8 8 8 8 8 8 8 8 8 8
9 9 9 9 9 9 9 9 9 10 10 10 10 10 10 10 10 10 10 10 10 10 10 10 9 9 9 8 8 8 7 7 7 7 7 7 7 7 7 7 7 7
9 9 9 8 9 9 9 9 9 9 10 10 10 10 10 10 10 10 10 9 9 9 9 9 9 8 8 8 7 7 7 6 6 6 6 6 6 6 6 6 6 6
8 8 8 8 9 9 9 9 9 9 10 10 10 10 9 9 9 9 9 8 8 8 8 8 8 8 8 7 7 7 6 6 5 5 5 5 5 5 5 6 6 5
8 8 8 9 9 9 9 9 9 9 9 9 9 9 9 9 8 8 8 8 7 7 7 7 8 8 7 7 7 7 6 6 5 5 5 5 4 4 4 5 5 5
8 8 8 9 8 8 8 9 9 9 8 8 8 8 8 8 8 8 7 7 7 6 6 6 7 7 7 7 7 7 6 5 5 5 5 4 4 4 4 4 4 4
8 8 8 8 8 8 8 8 8 8 7 7 7 7 7 7 7 7 7 6 6 6 6 6 7 7 7 7 7 7 6 6 5 5 5 5 5 4 4 4 4 3
7 7 8 8 8 7 7 7 7 7 6 6 6 6 6 6 6 6 6 6 6 6 6 7 7 7 7 7 7 6 6 6 5 5 5 5 5 5 5 4 4 3
7 7 7 7 7 7 7 6 6 6 5 5 5 6 6 6 6 6 6 6 7 6 6 7 7 7 7 7 7 6 6 6 5 5 4 4 5 5 5 4 4 3
6 6 6 6 6 6 6 6 5 5 5 5 5 6 6 6 6 6 6 6 7 7 6 6 7 7 6 6 6 6 5 5 4 4 4 4 4 5 5 4 4 3
5 5 5 5 5 5 5 5 5 5 5 5 6 6 6 6 6 6 6 6 6 7 6 5 6 7 6 6 6 5 4 3 3 3 2 3 3 4 4 3 3 3
4 4 5 5 5 4 4 4 5 5 6 6 6 6 6 6 5 6 6 6 6 6 6 6 6 7 7 5 5 4 3 2 2 1 1 2 2 2 2 2 2 2
4 4 4 4 4 3 3 4 5 5 6 6 6 5 5 5 5 5 6 6 6 6 6 5 5 5 6 5 3 3 2 1 1 0 0 0 0 -0 0 0 0 0

ECMWFNIL_925_temp_102.txt.gz
Temp
15 15 15 15 15 15 14 14 13 13 13 12 12 12 12 12 12 11 11 12 12 12 12 12 12 12 12 12 12 11 10 10 9 10 10 9 9 9 9 8 8 8
15 15 15 14 14 14 13 13 12 12 12 12 11 11 11 11 11 11 12 12 12 12 12 12 12 12 12 12 12 12 12 11 11 11 11 11 11 11 10 10 10 9
14 14 14 14 14 13 12 11 11 11 11 11 11 11 11 11 12 12 12 12 12 12 12 13 13 13 12 12 12 12 12 12 11 11 11 11 11 11 11 10 10 9
13 13 13 13 12 12 11 11 11 11 11 11 11 11 11 12 12 12 12 12 12 12 12 12 12 12 12 12 12 11 11 11 11 10 11 11 11 11 11 10 10 10
13 12 12 12 12 12 12 11 11 11 11 11 11 11 12 12 12 12 12 12 12 12 12 12 12 12 12 12 11 11 11 11 11 11 11 11 11 10 10 10 10 10
11 11 11 12 12 12 11 11 11 11 11 12 12 12 12 12 12 12 12 12 12 12 12 12 12 12 12 12 12 12 11 11 11 11 11 10 10 10 10 10 10 9
11 11 11 11 11 11 11 11 11 11 11 12 12 12 12 12 12 12 12 12 12 12 12 12 12 12 12 11 11 11 11 11 11 10 10 10 10 9 9 9 9 9
10 10 10 10 10 10 11 11 11 11 11 12 12 12 12 12 12 12 12 12 12 12 12 12 11 11 11 11 11 11 10 10 10 10 10 9 9 9 9 8 8 8
9 9 9 10 10 10 11 11 11 11 11 12 12 12 12 12 12 12 12 12 12 12 11 11 11 11 10 10 10 10 10 9 9 9 9 9 9 8 8 8 8 8
9 9 10 10 10 11 11 11 11 11 11 12 12 11 11 11 11 11 11 11 11 11 11 10 10 10 10 10 9 9 9 9 9 8 8 8 8 8 7 7 7 7
9 9 10 11 11 11 11 11 11 11 11 11 11 11 11 11 11 11 11 11 11 10 10 10 9 9 9 9 9 8 8 8 8 8 8 7 7 7 7 7 6 6
9 10 11 11 11 11 11 11 11 11 11 11 11 11 11 11 11 11 10 10 10 10 9 9 9 8 8 8 8 8 7 7 7 7 7 7 7 7 6 6 6 5
10 10 11 11 11 11 11 11 11 11 11 11 11 11 11 10 10 10 10 10 9 9 9 8 8 7 7 7 7 7 7 7 7 6 6 7 6 6 6 5 5 4
10 11 11 11 11 11 11 11 11 11 10 10 10 10 10 10 10 10 9 9 9 9 8 8 7 7 7 6 6 6 6 6 6 6 6 6 6 6 6 5 4 4
10 10 11 11 11 10 10 10 10 10 10 10 10 10 10 10 9 9 9 9 8 8 8 7 7 6 6 6 6 6 6 6 6 6 5 5 5 5 5 4 4 3
10 10 10 10 10 10 10 10 10 9 9 10 10 9 9 9 9 9 8 8 8 8 7 7 6 6 5 5 5 5 5 5 5 5 5 4 3 3 3 3 3 2
10 10 10 10 10 9 9 9 9 9 9 9 9 9 9 8 8 8 8 8 8 7 7 6 6 6 6 5 5 5 4 4 4 4 3 3 2 2 2 2 2 1
9 9 9 9 9 9 9 9 9 9 9 9 9 8 8 8 8 8 8 7 7 7 6 6 6 6 6 5 5 5 4 4 3 3 2 2 2 1 1 0 0 -0
9 9 9 9 9 9 9 9 8 9 8 8 8 8 8 7 7 7 7 7 7 6 6 6 6 5 5 5 4 4 4 3 3 3 2 2 2 1 0 -1 -2 -2
8 9 8 8 8 8 8 8 8 8 8 8 8 7 7 7 7 6 6 6 6 6 5 5 5 4 4 4 4 3 3 3 3 3 2 2 1 0 -1 -2 -3 -4
8 8 8 8 8 8 8 8 8 8 8 7 7 7 7 6 6 6 5 5 5 5 5 4 4 4 3 3 2 2 2 2 2 2 2 1 0 -1 -3 -4 -4 -5
8 8 8 8 8 8 7 8 7 7 7 7 7 6 6 6 5 5 5 5 4 4 4 3 3 3 2 2 1 1 1 2 2 2 2 0 -2 -3 -5 -5 -5 -6
8 8 8 7 7 7 7 7 7 7 7 6 6 6 5 5 5 4 4 4 4 3 3 3 2 2 2 1 1 1 1 1 1 0 0 -1 -3 -5 -6 -6 -6 -7
7 7 7 7 7 7 7 7 7 6 6 6 5 5 5 5 4 4 3 3 2 2 2 1 1 1 1 1 0 -0 -1 -2 -2 -2 -3 -4 -4 -5 -6 -7 -7 -7
7 7 7 7 7 7 7 6 6 6 5 5 5 5 4 4 4 3 2 1 1 1 0 -0 -0 0 0 -0 -1 -2 -4 -5 -5 -5 -6 -6 -7 -6 -5 -7 -8 -8
6 6 6 7 7 6 6 6 6 5 5 5 4 4 3 3 3 2 2 1 0 -0 -1 -1 -1 -1 -1 -2 -4 -5 -6 -6 -7 -7 -7 -8 -8 -8 -7 -7 -8 -8

ECMWFNIL_925_temp_105.txt.gz
Temp
16 16 16 16 15 15 15 15 15 14 14 14 13 13 13 12 12 12 12 12 12 12 12 12 12 12 12 12 13 13 13 12 12 12 11 11 11 11 11 11 11 11
16 16 16 15 15 15 15 14 14 14 14 13 13 12 12 12 12 12 12 12 12 12 12 12 12 12 12 12 12 12 12 12 12 12 12 12 11 11 11 11 11 11
15 15 15 15 15 14 14 14 13 13 13 12 12 12 12 12 12 12 12 12 12 12 12 12 12 12 12 12 12 12 12 12 12 11 11 11 11 11 11 10 10 10
15 15 15 15 14 14 14 13 13 12 11 11 11 11 11 12 12 12 12 12 12 12 12 12 12 12 12 12 12 12 12 11 11 11 11 11 10 10 10 10 10 9
14 14 14 14 14 13 13 12 12 11 10 11 11 11 12 12 12 12 12 12 12 12 12 12 12 12 12 11 11 11 11 10 10 10 10 10 10 10 9 9 9 9
13 13 13 13 13 12 12 12 11 11 11 11 12 12 12 12 12 12 12 12 12 12 12 12 12 11 11 10 10 10 10 10 10 9 9 9 9 9 9 9 8 8
12 12 12 12 12 12 11 11 10 11 11 12 11 11 12 12 12 12 12 12 12 12 11 11 11 11 10 10 10 10 10 9 9 9 9 9 8 8 8 8 8 7
12 11 11 11 11 11 11 10 11 11 11 11 11 11 11 12 12 12 12 12 12 11 11 10 10 10 10 10 10 10 9 9 9 9 9 8 8 8 8 7 7 7
11 11 11 11 10 10 10 11 11 11 11 11 11 11 11 11 12 12 11 11 11 11 10 10 10 10 10 10 10 10 9 9 9 8 8 8 8 7 7 7 7 7
10 10 10 10 10 10 11 11 11 11 11 11 11 11 11 11 11 11 11 11 10 10 10 10 10 9 9 9 9 9 9 9 8 8 8 7 7 7 7 7 7 6
10 9 9 10 10 11 11 11 11 11 11 11 11 11 11 11 11 10 10 10 10 10 10 9 9 9 9 9 9 9 9 8 8 8 7 7 7 6 6 6 6 5
9 9 10 10 10 10 10 10 11 11 11 11 11 11 11 10 10 10 10 10 10 9 9 9 9 9 9 9 9 8 8 8 7 7 7 7 6 6 6 5 5 4
9 9 10 10 10 10 10 10 11 11 11 11 10 11 10 10 10 9 9 9 9 9 9 9 9 9 9 8 8 8 7 7 7 7 7 6 6 5 5 4 4 3
9 9 9 10 10 10 10 10 10 10 10 10 10 10 10 9 9 9 9 9 9 9 9 8 8 8 8 8 7 7 7 7 7 6 6 6 5 5 4 4 3 3
8 8 9 9 10 10 10 10 10 10 10 9 9 9 9 9 9 9 9 9 8 8 8 8 8 7 7 7 7 6 6 6 6 6 5 5 4 4 4 3 3 2
8 8 9 9 9 9 9 9 9 9 9 9 9 9 9 9 9 8 8 8 8 8 8 7 7 7 6 6 6 6 6 6 5 5 4 3 3 3 3 3 2 2
8 8 8 9 9 9 9 9 9 9 9 9 9 9 9 8 8 8 8 8 8 7 7 7 6 6 6 6 5 5 5 5 4 3 3 3 2 2 2 1 1 1
8 8 8 8 8 9 9 9 9 9 9 9 9 8 8 8 8 8 8 7 7 7 7 6 6 6 5 5 5 4 4 3 3 2 2 2 1 1 0 -0 -1 -1
7 8 8 8 8 8 8 8 8 9 9 9 8 8 8 8 8 8 7 7 7 7 6 6 6 5 5 5 4 3 3 2 2 2 1 1 1 -0 -1 -2 -3 -4
7 8 8 8 8 8 8 8 8 8 8 8 8 8 8 8 7 7 7 7 6 6 6 6 5 5 4 4 3 2 2 2 1 1 1 1 0 -1 -2 -3 -4 -5
7 7 7 7 7 7 7 8 8 8 8 8 8 7 7 7 7 7 6 6 6 6 6 5 5 4 4 3 2 2 2 2 1 1 1 0 -1 -2 -3 -4 -4 -5
7 7 7 7 7 7 7 7 7 7 7 7 7 7 7 7 6 6 6 6 6 5 5 5 4 3 3 2 2 1 2 2 1 1 0 -1 -2 -3 -4 -4 -4 -5
7 7 7 7 7 7 7 7 7 7 7 7 7 6 6 6 6 6 6 5 5 5 4 4 3 2 2 2 1 1 1 1 1 0 -1 -3 -4 -5 -5 -5 -5 -6
7 7 7 7 7 7 7 7 7 7 6 6 6 6 6 6 6 5 5 4 4 4 3 3 2 2 1 1 1 1 0 0 -0 -2 -4 -6 -7 -7 -7 -6 -7 -7
6 7 7 7 7 7 7 7 7 6 6 5 6 6 6 5 5 5 4 4 3 3 3 2 2 1 1 1 1 0 -1 -2 -2 -4 -7 -8 -9 -9 -8 -8 -7 -7
6 7 7 7 7 7 7 6 6 6 5 5 5 5 5 4 4 3 3 3 2 2 2 1 1 1 1 1 1 0 -2 -4 -5 -6 -8 -9 -9 -10 -10 -9 -8 -8

ECMWFNIL_925_temp_111.txt.gz
Temp
16 16 16 16 16 16 16 16 15 15 15 15 15 14 14 14 14 14 14 13 13 12 12 11 11 11 11 12 12 12 12 12 12 12 12 12 11 11 11 11 10 9
15 16 16 15 15 15 15 16 15 15 15 15 15 14 14 14 14 14 14 13 13 12 12 11 11 11 12 12 12 12 12 12 12 11 11 11 11 11 11 10 9 9
15 15 15 15 15 15 15 15 15 15 15 15 15 14 14 14 13 13 13 13 13 12 11 11 11 12 12 12 12 12 12 12 12 11 11 11 11 11 10 9 9 8
15 15 15 15 15 15 15 15 15 15 15 15 14 14 14 14 13 13 13 13 12 12 11 11 11 12 12 12 12 12 12 12 11 11 11 11 10 10 9 9 9 8
15 15 15 15 15 15 15 15 15 15 15 15 14 14 14 14 13 13 12 12 12 11 11 11 11 12 12 12 12 12 12 12 11 11 11 11 10 9 9 8 8 8
14 14 14 14 14 15 15 15 15 15 15 14 14 13 13 13 13 13 12 11 11 11 11 11 11 11 11 11 12 12 12 11 11 10 11 10 9 9 8 8 8 8
14 14 14 14 14 14 15 15 15 15 14 14 13 13 13 13 12 12 11 11 11 11 11 11 11 11 11 11 12 11 11 11 11 10 10 10 9 8 8 8 8 8
14 14 14 14 14 14 14 14 15 14 14 13 13 12 12 12 12 11 11 11 11 10 11 11 11 11 11 11 11 11 11 11 10 10 10 9 8 8 8 8 8 7
13 13 13 13 13 13 13 14 14 14 13 13 12 12 12 12 11 11 10 10 10 10 10 10 10 10 10 10 11 11 11 10 9 9 9 8 8 8 8 7 7 7
13 13 13 13 13 13 13 13 13 13 13 12 12 12 12 11 10 10 10 10 10 10 10 10 10 10 10 10 10 11 11 10 9 8 8 8 8 8 7 7 7 6
13 13 12 13 13 13 13 12 12 13 12 12 12 12 11 10 10 10 10 10 10 10 10 10 10 10 10 10 10 10 10 9 9 8 8 8 8 7 7 6 6 6
12 12 12 12 12 12 12 12 12 12 12 11 11 11 10 9 9 9 9 10 10 10 10 10 10 10 10 10 10 9 9 9 8 8 8 8 7 7 6 6 6 6
11 11 11 12 12 12 11 11 11 12 11 11 10 10 10 9 9 8 9 10 10 10 10 10 10 10 10 10 9 9 8 8 8 8 7 7 7 6 6 5 5 5
11 11 11 12 12 12 11 11 11 11 10 10 9 9 9 9 8 8 9 9 9 9 9 9 9 9 9 9 9 8 8 8 8 7 7 6 6 5 5 5 5 4
10 10 10 11 11 11 10 10 10 10 9 9 8 8 8 8 8 8 9 9 9 9 9 9 9 9 8 8 8 8 8 7 7 7 6 6 6 5 5 4 4 4
9 9 9 10 10 10 10 9 9 8 8 8 7 7 7 7 8 8 8 8 8 8 8 8 8 8 8 8 8 8 7 7 7 6 6 5 5 5 4 4 4 4
9 9 9 9 9 9 8 8 8 7 7 7 6 6 6 7 7 8 8 8 8 8 8 7 7 7 7 7 7 7 7 7 7 6 5 5 5 5 4 4 4 3
8 8 8 8 8 7 7 7 7 7 6 6 6 6 6 7 7 7 7 7 7 8 7 7 7 7 7 7 7 6 6 6 6 6 5 5 4 4 4 4 3 3
8 7 7 7 6 6 6 6 6 6 5 5 5 6 6 6 7 7 7 7 7 7 7 7 7 7 6 6 6 6 6 6 6 5 5 5 4 4 4 3 3 3
6 6 6 6 5 6 6 5 5 5 5 5 6 6 6 6 6 6 6 6 6 7 6 6 6 6 6 6 6 5 5 5 5 5 4 4 4 4 3 3 3 2
5 5 5 5 5 5 5 5 5 5 5 5 6 6 6 6 6 6 6 6 6 6 6 6 6 6 6 5 5 5 5 5 4 4 4 4 3 3 3 3 2 2
5 5 5 5 5 4 4 4 4 4 5 5 5 5 5 6 5 6 6 5 5 5 6 5 5 5 5 5 5 4 4 4 4 4 3 3 3 3 2 2 2 1
4 4 4 4 4 4 4 4 4 4 4 5 5 5 5 5 5 5 5 5 5 5 5 5 5 5 5 4 4 4 4 4 4 3 3 3 3 2 1 1 1 1
4 4 4 4 4 4 4 3 4 4 4 4 5 5 4 4 5 4 4 4 5 5 5 5 5 4 4 4 4 4 3 3 3 3 3 3 2 1 1 1 1 1
4 4 4 4 4 3 3 3 3 4 4 4 4 5 4 4 4 4 3 3 4 4 4 5 4 4 3 4 4 3 3 3 3 3 3 2 2 1 1 1 0 -0
4 4 4 4 4 3 3 3 3 3 3 3 3 4 4 3 3 4 3 3 2 3 3 3 4 3 3 3 3 3 3 2 2 2 2 2 2 1 1 1 -1 -1

ECMWFNIL_925_temp_114.txt.gz
Temp
15 15 16 16 15 15 15 15 15 15 15 15 15 15 15 15 14 14 14 14 14 14 13 13 12 12 11 11 10 10 10 10 10 10 11 11 12 11 12 12 11 11
15 15 15 15 15 14 14 15 15 15 15 16 15 15 15 15 14 13 14 14 13 13 13 12 12 11 10 10 10 10 10 10 11 12 12 12 12 12 11 11 11 11
14 14 15 15 14 14 14 15 14 14 15 15 15 15 14 14 14 13 13 13 13 13 13 12 11 10 10 10 10 10 10 11 12 12 12 12 12 11 11 11 11 10
14 14 14 14 14 14 14 14 14 14 15 15 15 14 14 14 14 13 13 13 13 13 13 12 11 11 10 10 10 10 11 12 12 12 12 11 11 10 10 10 10 10
14 14 14 14 14 14 14 14 14 14 14 14 14 14 14 14 14 13 13 13 13 13 13 12 11 11 10 10 10 11 12 12 12 12 11 11 10 10 10 10 10 10
13 13 14 14 14 14 14 14 14 14 14 14 14 14 14 14 14 13 12 12 13 13 12 12 11 11 11 11 12 12 12 12 12 11 11 10 10 10 10 10 9 9
13 13 13 14 14 14 14 14 14 14 14 14 14 14 14 14 14 13 12 13 12 12 12 11 11 11 11 12 12 12 12 12 11 11 10 10 10 9 9 9 9 8
13 13 13 13 13 13 13 14 14 14 14 14 14 14 14 14 13 13 13 13 12 12 12 11 11 11 11 12 12 12 12 11 11 10 9 10 10 9 9 8 8 8
13 13 13 13 13 13 13 14 14 14 14 14 14 14 14 14 13 13 13 12 12 12 11 11 11 11 11 12 12 12 11 11 10 9 9 10 9 9 9 8 7 7
12 13 13 13 13 13 13 13 14 14 14 14 14 14 13 13 12 12 12 12 12 11 11 11 11 11 11 11 11 11 11 10 9 9 9 10 9 9 8 8 7 7
12 12 13 13 13 13 13 13 13 14 13 13 13 13 13 12 11 11 11 12 12 11 11 11 11 11 11 11 11 11 10 9 9 9 9 9 9 9 8 7 7 7
12 12 12 12 13 13 13 13 13 13 13 12 13 13 12 12 11 11 11 11 11 11 11 11 11 10 11 11 10 10 9 9 9 8 8 8 8 8 7 7 7 7
11 12 12 12 12 12 12 12 12 12 11 11 12 13 12 11 11 11 10 11 11 10 10 10 10 10 10 10 9 9 9 9 8 8 8 8 8 7 7 7 6 6
11 11 11 11 11 11 11 11 11 11 11 11 11 12 12 11 11 10 10 10 10 10 10 10 10 10 10 9 9 8 8 8 8 8 8 8 7 7 6 6 6 5
10 10 11 11 11 11 10 10 10 10 10 10 10 11 11 11 10 10 10 10 9 9 9 9 9 10 9 9 8 8 8 8 8 8 8 7 7 6 6 5 5 5
10 10 10 10 10 9 9 9 9 9 9 9 9 10 11 10 9 9 10 9 8 8 8 8 9 9 9 8 9 8 8 8 8 8 7 7 7 6 5 5 4 4
8 9 8 8 8 8 8 9 9 8 8 8 8 9 10 9 8 9 8 8 8 8 8 8 8 8 8 8 8 9 9 9 8 8 7 6 6 6 5 5 4 4
7 8 7 7 7 7 7 8 8 7 7 8 8 8 8 8 8 8 8 8 8 8 7 8 8 7 7 8 8 8 8 8 8 7 7 6 6 5 5 4 4 3
6 7 7 6 7 6 6 7 7 7 7 7 8 8 8 7 7 7 7 7 7 7 7 7 7 7 7 7 7 7 7 7 7 7 6 6 5 5 4 4 3 3
6 6 6 6 6 6 6 6 7 7 7 7 7 7 6 6 6 6 6 7 7 7 7 6 6 7 7 7 7 6 6 6 6 6 6 5 5 4 4 4 3 3
6 5 6 6 6 6 6 6 6 7 7 6 6 6 6 6 6 6 6 6 6 6 6 6 6 6 6 6 6 6 6 6 6 5 5 5 4 4 3 3 3 2
6 6 6 6 6 6 6 6 6 5 5 5 5 5 5 5 5 5 6 5 5 5 6 6 6 6 6 6 5 6 5 5 5 5 4 4 4 3 3 3 2 2
6 6 6 6 6 6 5 5 5 4 4 5 4 4 3 4 4 4 5 5 5 5 5 6 6 5 5 5 5 5 5 5 5 4 4 4 3 3 3 2 2 2
6 6 6 6 5 5 5 4 4 4 4 4 4 3 3 3 4 4 4 4 4 5 5 6 6 5 4 4 5 5 5 5 5 4 4 3 3 3 2 2 2 1
6 6 5 5 5 4 4 3 3 3 3 2 2 3 3 3 3 3 3 3 3 4 5 6 6 5 4 4 5 4 4 4 4 4 3 3 3 2 2 2 1 1
5 5 4 4 4 3 2 2 2 2 2 1 1 2 2 2 2 2 2 2 2 3 3 4 5 5 3 4 4 4 4 4 4 4 4 3 3 3 2 2 1 1